Location: Kawakawa
(35.3830°S, 174.0670°E)
Time: 21:29:34
(UTC+13:00)

A-11 Canister half - Pass Details

Date: 09 December 2019
Orbit: 1525 x 1684 km, 47.3° (Epoch: 17 January)

Event Time Altitude Azimuth Distance (km) Brightness Sun altitude
Rises 23:53:44 0° 245° (WSW) 4,696 12.2 -28.8°
Reaches altitude 10° 23:57:00 10° 238° (WSW) 3,721 11.6 -29.0°
Maximum altitude 00:05:55 44° 167° (SSE) 2,047 9.9 -29.6°
Drops below altitude 10° 00:15:01 10° 96° (E) 3,806 10.9 -30.2°
Sets 00:18:23 0° 89° (E) 4,811 11.5 -30.4°
